BEIDOU-3 IGSO-2 (C39)

Last updated on Jan. 18, 2020, 4:39 a.m. UTC

1 44337U 19035A   20017.38174524 -.00000068  00000-0  00000-0 0  9998
2 44337  55.0555 179.6975 0012560 182.5415 358.6399  1.00285087  2200
UTC
Height (km)
Latitude
Longitude
Inclination
Orbital Period
UTC large
Height (km)
Speed (km/s)
/
Latitude / Longitude
Inclination (degrees)
Orbital Period (minutes)
Azimuth
Elevation
Range (km)
Doppler Factor
iOS Compass Heading
iOS Angle

Next 30 passes for location: Hong Kong

Rise time Rise Azimuth (degrees) Set time Set Azimuth (degrees) Duration Max altitude (degrees)

No matching passes for this satellites